Погода в Маане

Иордания     30°12′26″N   35°43′18″E
темп.,
°C
ветер,
м/с
пор.,
м/с
влажн.,
%
обл.,
%
осадки,
мм/ч
давл.,
гПа
погр.,
м
28 февраля, вс
вс2823:00+9с8125765 0.0 1013420
02:00+9с8125369 0.3 1013305
05:00+9с6105290 0.1 1014239
08:00+9ссв346081 0.1 1016535
11:00+13сз664746 0.1 10161537
14:00+13сз894534 0.1 10141518
17:00+11сз910642 0.0 1016769
20:00+9зсз79741 0.0 1018243
1 марта, пн
пн123:00+8з68690 0.0 1019135
02:00+7зсз811770 0.0 1018184
05:00+6зсз711740 0.0 1019178
08:00+8з35650 0.0 1020354
11:00+12зюз23440 0.0 10191221
14:00+13зсз54370 0.0 10161228
17:00+12зсз55450 0.0 1017840
20:00+10зсз35560 0.0 1019220
2 марта, вт
вт223:00+8з33680 0.0 102061
02:00+7з23640 0.0 102026
05:00+6з22600 0.0 102022
08:00+8ююз11490 0.0 1021169
11:00+12ю12320 0.0 1020971
14:00+15зсз54260 0.0 10171385
17:00+13зсз56380 0.0 1017773
20:00+10зсз57470 0.0 1019315
3 марта, ср
ср323:00+8зсз57570 0.0 1019161
02:00+7зсз33580 0.0 101948
05:00+5сз22690 0.0 101927
08:00+7ссз12620 0.0 1019271
11:00+11юв12400 0.0 10181095
14:00+13з66350 0.0 10151096
17:00+10зсз78550 0.0 1016795
20:00+8зсз810600 0.0 1017899
4 марта, чт
чт423:00+6зсз811570 0.0 1018833
02:00+5зсз710740 0.0 1018544
05:00+4зсз711740 0.0 1018531
08:00+5зсз912650 0.0 1020706
11:00+8сз1012550 0.0 1019918
14:00+10сз911530 0.0 10181038
17:00+8зсз811650 0.0 1019771
20:00+7зсз610760 0.0 1022432